TimeIST,TemperatureF,Dew PointF,Humidity,Sea Level PressureIn,VisibilityMPH,Wind Direction,Wind SpeedMPH,Gust SpeedMPH,PrecipitationIn,Events,Conditions,WindDirDegrees,DateUTC
12:10 AM,77.0,64.4,65,29.86,1.4,Calm,Calm,-,N/A,,Smoke,0,2012-12-03 18:40:00
12:40 AM,77.0,64.4,65,29.86,1.3,Calm,Calm,-,N/A,,Smoke,0,2012-12-03 19:10:00
1:10 AM,75.2,66.2,73,29.86,1.3,Calm,Calm,-,N/A,,Smoke,0,2012-12-03 19:40:00
1:40 AM,75.2,66.2,73,29.86,1.3,Calm,Calm,-,N/A,,Smoke,0,2012-12-03 20:10:00
2:10 AM,75.2,66.2,73,29.86,1.2,Calm,Calm,-,N/A,,Smoke,0,2012-12-03 20:40:00
2:30 AM,69,65,82,29.85,1,Calm,Calm,,,,Haze,,2012-12-03 21:00:00
2:40 AM,75.2,66.2,73,29.86,1.3,East,3.5,-,N/A,,Smoke,100,2012-12-03 21:10:00
3:10 AM,77.0,62.6,61,29.83,1.4,NE,4.6,-,N/A,,Smoke,40,2012-12-03 21:40:00
3:40 AM,73.4,64.4,73,29.83,1.4,ESE,3.5,-,N/A,,Smoke,120,2012-12-03 22:10:00
4:10 AM,73.4,64.4,73,29.83,1.4,Calm,Calm,-,N/A,,Smoke,0,2012-12-03 22:40:00
4:40 AM,73.4,62.6,69,29.83,1.4,East,4.6,-,N/A,,Smoke,80,2012-12-03 23:10:00
5:10 AM,75.2,60.8,61,29.83,1.4,ENE,5.8,-,N/A,,Smoke,70,2012-12-03 23:40:00
5:30 AM,67,62,78,29.85,1,Calm,Calm,,,,Haze,,2012-12-04 00:00:00
5:40 AM,73.4,62.6,69,29.86,1.4,Calm,Calm,-,N/A,,Smoke,0,2012-12-04 00:10:00
6:10 AM,71.6,62.6,73,29.86,1.2,Calm,Calm,-,N/A,,Smoke,0,2012-12-04 00:40:00
6:40 AM,71.6,60.8,69,29.86,1.2,Calm,Calm,-,N/A,,Smoke,0,2012-12-04 01:10:00
7:40 AM,77.0,57.2,50,29.89,1.6,ENE,5.8,-,N/A,,Smoke,60,2012-12-04 02:10:00
8:10 AM,78.8,57.2,47,29.92,1.6,ENE,5.8,-,N/A,,Smoke,60,2012-12-04 02:40:00
8:30 AM,72,61,60,29.91,1,Calm,Calm,,,,Smoke,,2012-12-04 03:00:00
8:40 AM,78.8,57.2,47,29.92,1.7,NE,4.6,-,N/A,,Smoke,50,2012-12-04 03:10:00
10:10 AM,84.2,57.2,40,29.92,1.9,East,8.1,-,N/A,,Smoke,100,2012-12-04 04:40:00
10:40 AM,86.0,57.2,37,29.92,1.9,East,6.9,-,N/A,,Smoke,90,2012-12-04 05:10:00
11:10 AM,87.8,57.2,35,29.92,1.9,ESE,6.9,-,N/A,,Smoke,110,2012-12-04 05:40:00
11:30 AM,89,60,27,29.91,1,East,4.6,,,,Smoke,90,2012-12-04 06:00:00
11:40 AM,87.8,57.2,35,29.89,1.9,ESE,6.9,-,N/A,,Smoke,120,2012-12-04 06:10:00
12:10 PM,89.6,53.6,29,29.89,2.5,ESE,6.9,-,N/A,,Smoke,120,2012-12-04 06:40:00
12:40 PM,89.6,53.6,29,29.86,2.8,East,9.2,-,N/A,,Smoke,80,2012-12-04 07:10:00
1:40 PM,93.2,53.6,26,29.83,3.1,East,5.8,-,N/A,,Smoke,80,2012-12-04 08:10:00
2:10 PM,93.2,53.6,26,29.83,3.1,NE,8.1,-,N/A,,Smoke,50,2012-12-04 08:40:00
2:30 PM,93,56,19,29.81,1,NE,5.8,,,,Smoke,50,2012-12-04 09:00:00
2:40 PM,93.2,53.6,26,29.80,3.1,North,5.8,-,N/A,,Smoke,350,2012-12-04 09:10:00
3:10 PM,93.2,53.6,26,29.80,3.1,NE,3.5,-,N/A,,Smoke,50,2012-12-04 09:40:00
3:40 PM,93.2,55.4,28,29.80,2.8,NE,8.1,-,N/A,,Smoke,40,2012-12-04 10:10:00
4:10 PM,89.6,64.4,43,29.80,2.5,NNW,10.4,-,N/A,,Smoke,330,2012-12-04 10:40:00
4:40 PM,87.8,64.4,46,29.80,2.5,NW,8.1,-,N/A,,Smoke,320,2012-12-04 11:10:00
5:30 PM,86,67,44,29.79,1,NW,5.8,,,,Smoke,320,2012-12-04 12:00:00
5:40 PM,86.0,66.2,51,29.80,1.9,NNW,8.1,-,N/A,,Smoke,330,2012-12-04 12:10:00
6:10 PM,84.2,64.4,51,29.80,1.9,NNW,8.1,-,N/A,,Smoke,340,2012-12-04 12:40:00
6:40 PM,84.2,64.4,51,29.80,1.9,NNW,9.2,-,N/A,,Smoke,330,2012-12-04 13:10:00
7:10 PM,84.2,64.4,51,29.83,1.9,NNW,8.1,-,N/A,,Smoke,330,2012-12-04 13:40:00
7:40 PM,82.4,66.2,58,29.83,1.7,NNW,6.9,-,N/A,,Smoke,330,2012-12-04 14:10:00
8:10 PM,82.4,66.2,58,29.83,1.6,NNW,5.8,-,N/A,,Smoke,340,2012-12-04 14:40:00
8:30 PM,81,67,54,29.84,1,NNW,6.9,,,,Smoke,340,2012-12-04 15:00:00
8:40 PM,82.4,66.2,58,29.83,1.4,NNW,6.9,-,N/A,,Smoke,330,2012-12-04 15:10:00
9:10 PM,80.6,66.2,61,29.83,1.4,NNE,3.5,-,N/A,,Smoke,30,2012-12-04 15:40:00
9:40 PM,82.4,66.2,58,29.86,1.4,Calm,Calm,-,N/A,,Smoke,0,2012-12-04 16:10:00
10:10 PM,82.4,64.4,54,29.86,1.4,Calm,Calm,-,N/A,,Smoke,0,2012-12-04 16:40:00
10:40 PM,80.6,66.2,61,29.86,1.4,NE,4.6,-,N/A,,Smoke,40,2012-12-04 17:10:00
11:10 PM,78.8,64.4,61,29.86,1.6,Calm,Calm,-,N/A,,Smoke,0,2012-12-04 17:40:00
11:30 PM,74,66,71,29.85,1,Calm,Calm,,,,Haze,,2012-12-04 18:00:00
11:40 PM,78.8,64.4,61,29.86,1.6,ESE,3.5,-,N/A,,Smoke,110,2012-12-04 18:10:00